Skip Page Navigation
NASA JPL Caltech
NASA Logo - Jet Propulsion Laboratory + View the NASA Portal
+ Near-Earth Object (NEO) Program
Search JPL
JPL Home Earth Solar System Stars & Galaxies Technology
JPL Solar System Dynamics
BODIES ORBITS EPHEMERIDES TOOLS PHYSICAL DATA DISCOVERY FAQ SITE MAP
JPL Small-Body Database Browser
Search: [ help ]  
23307 Alexramek (2001 AG20)
Classification: Main-belt Asteroid          SPK-ID: 2023307
Ephemeris | Orbit Diagram | Orbital Elements | Physical Parameters | Discovery Circumstances ]

[ show orbit diagram ]
Orbital Elements at Epoch 2456400.5 (2013-Apr-18.0) TDB
Reference: JPL 1 (heliocentric ecliptic J2000)
 Element Value Uncertainty (1-sigma)   Units 
e .1232033418343926 7.8015e-08  
a 2.304252722485874 2.3718e-08 AU
q 2.020361086644617 1.7922e-07 AU
i 7.230733215800687 8.223e-06 deg
node 158.0213702014003 6.815e-05 deg
peri 205.5673428755526 7.6865e-05 deg
M 286.0428612102814 4.0096e-05 deg
tp 2456662.964874996651
(2014-Jan-05.46487500)
0.00014416 JED
period 1277.596139399725
3.50
1.9726e-05
5.401e-08
d
yr
n .2817791858459629 4.3507e-09 deg/d
Q 2.58814435832713 2.6641e-08 AU
  Orbit Determination Parameters
   # obs. used (total)      456  
   data-arc span      8567 days (23.46 yr)  
   first obs. used      1989-11-06  
   last obs. used      2013-04-21  
   planetary ephem.      DE405  
   SB-pert. ephem.      SB405-CPV-2  
   condition code      0  
   fit RMS      .61584  
   data source      ORB  
   producer      Otto Matic  
   solution date      2013-Apr-29 14:35:17  

Additional Information
 Earth MOID = 1.01919 AU 
 T_jup = 3.568 
[ show covariance matrix ]

Ephemeris | Orbit Diagram | Orbital Elements | Physical Parameters | Discovery Circumstances ]

Physical Parameter Table
Parameter Symbol Value Units Sigma Reference Notes
absolute magnitude H 15.9 mag n/a PDS3 (MPO 10270)  

23307 Alexramek           Discovered 2001 Jan. 2 by the Lincoln Laboratory Near-Earth Asteroid Research Team in Socorro.
Alex Shlomo Ramek (b. 1990) was awarded first place in the 2007 Intel International Science and Engineering Fair for his medicine and health sciences team project. He attends the Hebrew Academy of the Five Towns and Rockaway, Cedarhurst, New York, U.S.A.
NOTE: some special characters may not display properly (any characters within {} are an attempt to place the proper accent above a character)
Reference: 20070828/MPCPages.arcLast Updated: 2007-08-30

Alternate Designations
 2001 AG20 = 1989 VY4 = 1989 XF2 
Ephemeris | Orbit Diagram | Orbital Elements | Physical Parameters | Discovery Circumstances ]
ABOUT SSD CREDITS/AWARDS PRIVACY/COPYRIGHT GLOSSARY LINKS
FirstGov 2013-Jun-19 23:54 UT
(server date/time)  
NASA Home Page
Site Manager:   Donald K. Yeomans
Webmaster  Alan B. Chamberlin